Radiation Dose at Monitoring Post of Fukushima Daini Nuclear Power Station
Date,Time,MP-1(microSv/h),MP-2(microSv/h),MP-3(microSv/h),MP-4(microSv/h),MP-5(microSv/h),MP-6(microSv/h),MP-7(microSv/h),Wind Direction,Wind Velocity(m/s),Rain
2014/10/07,00:00,0.611,0.421,0.650,0.587,0.590,0.266,0.231,north,4.1,No
2014/10/07,00:10,0.611,0.424,0.648,0.587,0.590,0.267,0.232,north-northwest,4.2,No
2014/10/07,00:20,0.612,0.420,0.649,0.590,0.591,0.266,0.231,north-northwest,4.2,No
2014/10/07,00:30,0.612,0.422,0.647,0.587,0.588,0.266,0.232,north-northwest,3.9,No
2014/10/07,00:40,0.611,0.421,0.650,0.587,0.589,0.264,0.231,north-northwest,4.0,No
2014/10/07,00:50,0.611,0.421,0.649,0.588,0.589,0.265,0.231,north-northwest,4.2,No
2014/10/07,01:00,0.610,0.423,0.646,0.587,0.590,0.265,0.230,north,3.2,Yes
2014/10/07,01:10,0.611,0.421,0.650,0.587,0.590,0.264,0.231,north,3.7,Yes
2014/10/07,01:20,0.610,0.420,0.647,0.587,0.590,0.265,0.231,north,5.2,Yes
2014/10/07,01:30,0.611,0.422,0.650,0.588,0.589,0.265,0.231,north,5.8,Yes
2014/10/07,01:40,0.611,0.422,0.649,0.589,0.589,0.266,0.233,north,6.7,Yes
2014/10/07,01:50,0.610,0.423,0.648,0.588,0.592,0.267,0.232,north-northwest,7.4,Yes
2014/10/07,02:00,0.611,0.421,0.650,0.588,0.590,0.265,0.232,north-northwest,8.4,Yes
2014/10/07,02:10,0.610,0.422,0.649,0.589,0.590,0.266,0.230,north,7.8,Yes
2014/10/07,02:20,0.608,0.422,0.648,0.587,0.588,0.265,0.232,north,7.2,Yes
2014/10/07,02:30,0.609,0.422,0.648,0.588,0.590,0.267,0.233,north,7.5,Yes
2014/10/07,02:40,0.610,0.422,0.648,0.587,0.590,0.265,0.231,north,6.8,Yes
2014/10/07,02:50,0.610,0.421,0.648,0.586,0.588,0.267,0.231,north-northwest,6.6,Yes
2014/10/07,03:00,0.610,0.421,0.649,0.586,0.590,0.264,0.231,north-northwest,6.1,Yes
2014/10/07,03:10,0.610,0.421,0.649,0.587,0.589,0.266,0.232,north-northwest,6.6,Yes
2014/10/07,03:20,0.610,0.423,0.648,0.586,0.589,0.265,0.231,north,7.2,Yes
2014/10/07,03:30,0.608,0.421,0.648,0.587,0.588,0.266,0.231,north,7.5,Yes
2014/10/07,03:40,0.614,0.423,0.651,0.585,0.589,0.264,0.232,north-northwest,7.8,Yes
2014/10/07,03:50,0.611,0.421,0.648,0.587,0.589,0.265,0.230,north-northwest,6.3,No
2014/10/07,04:00,0.611,0.421,0.648,0.586,0.590,0.265,0.231,north-northwest,6.5,No
2014/10/07,04:10,0.610,0.422,0.648,0.586,0.588,0.265,0.231,north-northwest,6.5,No
2014/10/07,04:20,0.609,0.421,0.649,0.589,0.589,0.265,0.231,north-northwest,7.1,No
2014/10/07,04:30,0.610,0.421,0.647,0.587,0.588,0.265,0.231,north-northwest,7.3,No
2014/10/07,04:40,0.610,0.422,0.648,0.586,0.589,0.263,0.230,north-northwest,7.5,No
2014/10/07,04:50,0.611,0.421,0.647,0.587,0.589,0.263,0.231,north-northwest,7.1,No
2014/10/07,05:00,0.609,0.421,0.648,0.587,0.588,0.265,0.229,north-northwest,6.7,No
2014/10/07,05:10,0.611,0.421,0.648,0.587,0.588,0.263,0.230,north-northwest,6.3,No
2014/10/07,05:20,0.611,0.421,0.649,0.587,0.589,0.265,0.230,north-northwest,5.9,No
2014/10/07,05:30,0.611,0.420,0.650,0.586,0.587,0.264,0.228,north-northwest,6.6,No
2014/10/07,05:40,0.611,0.421,0.648,0.585,0.589,0.266,0.230,north-northwest,6.4,No
2014/10/07,05:50,0.611,0.421,0.647,0.588,0.587,0.265,0.230,north-northwest,6.3,Yes
2014/10/07,06:00,0.610,0.421,0.648,0.588,0.588,0.264,0.231,north,7.4,Yes
2014/10/07,06:10,0.611,0.422,0.649,0.587,0.588,0.263,0.230,north-northwest,6.5,No
2014/10/07,06:20,0.611,0.421,0.650,0.587,0.589,0.265,0.230,north-northwest,6.4,No
2014/10/07,06:30,0.610,0.422,0.650,0.589,0.588,0.264,0.231,north-northwest,6.2,No
2014/10/07,06:40,0.611,0.422,0.650,0.587,0.590,0.264,0.230,north-northwest,6.0,No
2014/10/07,06:50,0.612,0.423,0.649,0.587,0.589,0.264,0.232,north-northwest,5.8,No
2014/10/07,07:00,0.611,0.421,0.649,0.589,0.589,0.265,0.229,north-northwest,6.4,No
2014/10/07,07:10,0.612,0.422,0.650,0.588,0.590,0.265,0.232,north-northwest,5.6,No
2014/10/07,07:20,0.612,0.422,0.649,0.589,0.589,0.266,0.230,north-northwest,4.7,No
2014/10/07,07:30,0.611,0.423,0.651,0.590,0.590,0.264,0.232,north-northwest,4.6,No
2014/10/07,07:40,0.612,0.422,0.651,0.588,0.591,0.265,0.231,north-northwest,4.7,No
2014/10/07,07:50,0.614,0.423,0.649,0.590,0.590,0.264,0.229,north,4.5,No
2014/10/07,08:00,0.614,0.423,0.651,0.589,0.591,0.266,0.231,north,4.8,No
2014/10/07,08:10,0.613,0.424,0.650,0.588,0.592,0.264,0.231,north,4.1,No
2014/10/07,08:20,0.615,0.424,0.652,0.590,0.592,0.266,0.231,north,4.9,No
2014/10/07,08:30,0.615,0.424,0.652,0.589,0.591,0.265,0.233,north,4.6,No
2014/10/07,08:40,0.613,0.424,0.652,0.590,0.592,0.265,0.230,north,4.0,No
2014/10/07,08:50,0.615,0.424,0.652,0.589,0.591,0.265,0.232,north-northwest,3.6,No
2014/10/07,09:00,0.616,0.424,0.653,0.592,0.589,0.264,0.231,north,3.1,No
2014/10/07,09:10,0.615,0.423,0.653,0.593,0.590,0.267,0.231,north,2.6,No
2014/10/07,09:20,0.614,0.425,0.652,0.594,0.592,0.265,0.233,north-northwest,1.9,No
2014/10/07,09:30,0.616,0.425,0.652,0.594,0.593,0.266,0.230,east-northeast,2.5,No
2014/10/07,09:40,0.617,0.427,0.651,0.594,0.594,0.266,0.229,north-northeast,2.3,No
2014/10/07,09:50,0.617,0.426,0.652,0.594,0.595,0.265,0.233,east-northeast,2.9,No
2014/10/07,10:00,0.618,0.427,0.653,0.597,0.595,0.264,0.233,northeast,3.0,No
2014/10/07,10:10,0.617,0.428,0.651,0.598,0.596,0.265,0.230,northeast,3.6,No
2014/10/07,10:20,0.617,0.428,0.653,0.599,0.596,0.266,0.232,northeast,4.1,No
2014/10/07,10:30,0.619,0.430,0.654,0.603,0.595,0.267,0.232,northeast,4.2,No
2014/10/07,10:40,0.621,0.430,0.656,0.603,0.597,0.265,0.231,northeast,4.2,No
2014/10/07,10:50,0.622,0.430,0.654,0.605,0.598,0.267,0.232,northeast,3.5,No
2014/10/07,11:00,0.623,0.431,0.655,0.606,0.599,0.268,0.234,north-northeast,4.5,No
2014/10/07,11:10,0.624,0.431,0.657,0.608,0.600,0.269,0.233,north-northeast,4.4,No
2014/10/07,11:20,0.622,0.433,0.656,0.609,0.599,0.266,0.233,northeast,5.0,No
2014/10/07,11:30,0.625,0.432,0.657,0.610,0.602,0.267,0.233,northeast,4.4,No
2014/10/07,11:40,0.626,0.431,0.660,0.611,0.598,0.267,0.234,north-northeast,5.0,No
2014/10/07,11:50,0.625,0.432,0.658,0.610,0.599,0.267,0.233,northeast,3.9,No
2014/10/07,12:00,0.628,0.431,0.660,0.611,0.597,0.268,0.232,northeast,3.7,No
2014/10/07,12:10,0.627,0.433,0.659,0.611,0.599,0.267,0.234,northeast,3.3,No
2014/10/07,12:20,0.627,0.433,0.661,0.611,0.597,0.268,0.234,north-northeast,3.2,No
2014/10/07,12:30,0.627,0.431,0.661,0.610,0.597,0.267,0.234,northeast,3.5,No
2014/10/07,12:40,0.626,0.432,0.664,0.610,0.599,0.268,0.233,northeast,2.5,No
2014/10/07,12:50,0.626,0.433,0.663,0.609,0.598,0.269,0.234,northeast,3.0,No
2014/10/07,13:00,0.626,0.431,0.664,0.608,0.599,0.269,0.234,northeast,2.4,No
2014/10/07,13:10,0.628,0.431,0.662,0.608,0.598,0.268,0.233,northeast,1.8,No
2014/10/07,13:20,0.628,0.432,0.662,0.609,0.599,0.268,0.232,east-northeast,2.5,No
2014/10/07,13:30,0.629,0.431,0.661,0.611,0.599,0.268,0.235,northeast,2.5,No
2014/10/07,13:40,0.629,0.431,0.661,0.610,0.597,0.269,0.235,east-northeast,2.5,No
2014/10/07,13:50,0.629,0.432,0.660,0.608,0.598,0.268,0.234,east,1.9,No
2014/10/07,14:00,0.627,0.432,0.660,0.608,0.597,0.268,0.235,east,2.4,No
2014/10/07,14:10,0.627,0.431,0.663,0.608,0.599,0.267,0.235,east-northeast,1.9,No
2014/10/07,14:20,0.628,0.431,0.662,0.611,0.596,0.269,0.235,east,1.1,No
2014/10/07,14:30,0.625,0.431,0.663,0.611,0.596,0.270,0.236,east-northeast,1.5,No
2014/10/07,14:40,0.622,0.432,0.660,0.610,0.596,0.269,0.234,northeast,2.2,No
2014/10/07,14:50,0.625,0.431,0.658,0.611,0.595,0.268,0.235,east,1.5,No
2014/10/07,15:00,0.625,0.432,0.661,0.610,0.596,0.268,0.235,northeast,1.8,No
2014/10/07,15:10,0.626,0.431,0.658,0.608,0.595,0.268,0.236,east,1.4,No
2014/10/07,15:20,0.626,0.432,0.661,0.606,0.597,0.269,0.235,east-northeast,1.1,No
2014/10/07,15:30,0.626,0.433,0.660,0.605,0.598,0.270,0.236,east-southeast,1.3,No
2014/10/07,15:40,0.624,0.431,0.659,0.606,0.596,0.267,0.234,southeast,1.4,No
2014/10/07,15:50,0.622,0.432,0.659,0.604,0.597,0.269,0.236,east-southeast,1.5,No
2014/10/07,16:00,0.623,0.432,0.660,0.604,0.596,0.269,0.236,east,1.1,No
2014/10/07,16:10,0.622,0.431,0.659,0.605,0.596,0.267,0.235,east-southeast,0.9,No
2014/10/07,16:20,0.620,0.431,0.659,0.605,0.596,0.269,0.235,-,CALM,No
2014/10/07,16:30,0.621,0.430,0.657,0.600,0.596,0.268,0.236,-,CALM,No
2014/10/07,16:40,0.620,0.431,0.659,0.600,0.597,0.268,0.235,-,CALM,No
2014/10/07,16:50,0.619,0.430,0.659,0.601,0.596,0.269,0.235,-,CALM,No
2014/10/07,17:00,0.618,0.430,0.656,0.598,0.592,0.268,0.235,east,0.7,No
2014/10/07,17:10,0.618,0.431,0.658,0.598,0.594,0.270,0.236,-,CALM,No
2014/10/07,17:20,0.614,0.427,0.658,0.597,0.596,0.270,0.236,-,CALM,No
2014/10/07,17:30,0.617,0.428,0.657,0.598,0.595,0.270,0.236,-,CALM,No
2014/10/07,17:40,0.619,0.427,0.656,0.597,0.592,0.268,0.236,-,CALM,No
2014/10/07,17:50,0.616,0.429,0.653,0.595,0.593,0.271,0.235,-,CALM,No
2014/10/07,18:00,0.617,0.428,0.654,0.595,0.593,0.269,0.236,south,0.6,No
2014/10/07,18:10,0.617,0.431,0.656,0.593,0.593,0.269,0.237,south,0.9,No
2014/10/07,18:20,0.616,0.429,0.656,0.595,0.593,0.270,0.237,south-southwest,0.7,No
2014/10/07,18:30,0.617,0.427,0.657,0.595,0.593,0.268,0.236,south-southwest,1.4,No
2014/10/07,18:40,0.617,0.429,0.655,0.594,0.591,0.271,0.235,south-southwest,2.1,No
2014/10/07,18:50,0.619,0.428,0.657,0.596,0.593,0.269,0.237,southwest,1.5,No
2014/10/07,19:00,0.618,0.429,0.656,0.596,0.592,0.270,0.236,southwest,1.0,No
2014/10/07,19:10,0.619,0.429,0.658,0.595,0.592,0.267,0.236,southwest,1.3,No
2014/10/07,19:20,0.619,0.429,0.656,0.596,0.591,0.269,0.235,south-southwest,1.9,No
2014/10/07,19:30,0.616,0.428,0.658,0.594,0.592,0.269,0.236,southwest,2.0,No
2014/10/07,19:40,0.618,0.430,0.656,0.596,0.593,0.268,0.236,southwest,1.4,No
2014/10/07,19:50,0.616,0.429,0.656,0.597,0.592,0.269,0.235,south-southwest,1.0,No
2014/10/07,20:00,0.617,0.429,0.655,0.595,0.593,0.269,0.236,southwest,2.8,No
2014/10/07,20:10,0.618,0.428,0.657,0.595,0.593,0.270,0.237,southwest,3.6,No
2014/10/07,20:20,0.618,0.429,0.658,0.596,0.591,0.269,0.236,southwest,3.0,No
2014/10/07,20:30,0.618,0.429,0.656,0.595,0.593,0.269,0.236,southwest,3.3,No
2014/10/07,20:40,0.618,0.429,0.659,0.596,0.593,0.270,0.234,southwest,3.6,No
2014/10/07,20:50,0.617,0.429,0.658,0.596,0.593,0.269,0.236,southwest,3.8,No
2014/10/07,21:00,0.617,0.429,0.657,0.595,0.593,0.270,0.236,southwest,3.3,No
2014/10/07,21:10,0.620,0.429,0.658,0.599,0.591,0.269,0.235,south-southwest,3.0,No
2014/10/07,21:20,0.619,0.430,0.658,0.596,0.594,0.270,0.235,south-southwest,3.3,No
2014/10/07,21:30,0.618,0.429,0.656,0.595,0.594,0.270,0.236,south-southwest,3.3,No
2014/10/07,21:40,0.617,0.429,0.657,0.594,0.592,0.269,0.237,southwest,3.6,No
2014/10/07,21:50,0.619,0.429,0.657,0.595,0.593,0.270,0.236,south-southwest,3.4,No
2014/10/07,22:00,0.617,0.429,0.657,0.597,0.592,0.269,0.236,south-southwest,3.9,No
2014/10/07,22:10,0.619,0.428,0.658,0.595,0.594,0.270,0.237,south-southwest,3.6,No
2014/10/07,22:20,0.619,0.429,0.658,0.595,0.593,0.269,0.236,south-southwest,3.9,No
2014/10/07,22:30,0.617,0.429,0.658,0.596,0.592,0.270,0.235,south-southwest,4.6,No
2014/10/07,22:40,0.619,0.429,0.657,0.595,0.594,0.270,0.237,south-southwest,4.8,No
2014/10/07,22:50,0.617,0.428,0.658,0.597,0.592,0.270,0.236,south-southwest,4.6,No
2014/10/07,23:00,0.619,0.430,0.656,0.596,0.594,0.270,0.236,south-southwest,5.0,No
2014/10/07,23:10,0.619,0.428,0.658,0.596,0.594,0.269,0.235,south-southwest,4.5,No
2014/10/07,23:20,0.618,0.427,0.656,0.598,0.594,0.269,0.234,south-southwest,4.7,No
2014/10/07,23:30,0.619,0.429,0.658,0.594,0.593,0.271,0.236,south-southwest,4.5,No
2014/10/07,23:40,0.618,0.430,0.656,0.595,0.594,0.270,0.237,south-southwest,4.0,No
2014/10/07,23:50,0.620,0.428,0.659,0.597,0.594,0.269,0.236,south-southwest,3.8,No
